Year,Month,Day,Hour,Minute,Value (Times are PST for temperature in C)
2012,08,21,20,01,18.40
2012,08,21,20,02,18.40
2012,08,21,20,03,18.40
2012,08,21,20,04,18.40
2012,08,21,20,05,18.30
2012,08,21,20,06,18.30
2012,08,21,20,07,18.30
2012,08,21,20,08,18.30
2012,08,21,20,09,18.20
2012,08,21,20,10,18.20
2012,08,21,20,11,18.20
2012,08,21,20,12,18.20
2012,08,21,20,13,18.20
2012,08,21,20,14,18.20
2012,08,21,20,15,18.10
2012,08,21,20,16,18.10
2012,08,21,20,17,18.10
2012,08,21,20,18,18.10
2012,08,21,20,19,18.10
2012,08,21,20,20,18.00
2012,08,21,20,21,18.00
2012,08,21,20,22,18.00
2012,08,21,20,23,18.00
2012,08,21,20,24,17.90
2012,08,21,20,25,17.90
2012,08,21,20,26,17.90
2012,08,21,20,27,17.90
2012,08,21,20,28,17.90
2012,08,21,20,29,17.90
2012,08,21,20,30,17.90
2012,08,21,20,31,17.90
2012,08,21,20,32,17.90
2012,08,21,20,33,17.90
2012,08,21,20,34,17.80
2012,08,21,20,35,17.90
2012,08,21,20,36,17.80
2012,08,21,20,37,17.80
2012,08,21,20,38,17.80
2012,08,21,20,39,17.80
2012,08,21,20,40,17.80
2012,08,21,20,41,17.80
2012,08,21,20,42,17.70
2012,08,21,20,43,17.70
2012,08,21,20,44,17.70
2012,08,21,20,45,17.70
2012,08,21,20,46,17.70
2012,08,21,20,47,17.70
2012,08,21,20,48,17.70
2012,08,21,20,49,17.70
2012,08,21,20,50,17.70
2012,08,21,20,51,17.70
2012,08,21,20,52,17.60
2012,08,21,20,53,17.60
2012,08,21,20,54,17.60
2012,08,21,20,55,17.60
2012,08,21,20,56,17.60
2012,08,21,20,57,17.60
2012,08,21,20,58,17.60
2012,08,21,20,59,17.60
2012,08,21,21,00,17.50
2012,08,21,21,01,17.50
2012,08,21,21,02,17.50
2012,08,21,21,03,17.50
2012,08,21,21,04,17.50
2012,08,21,21,05,17.50
2012,08,21,21,06,17.50
2012,08,21,21,07,17.50
2012,08,21,21,08,17.40
2012,08,21,21,09,17.40
2012,08,21,21,10,17.40
2012,08,21,21,11,17.40
2012,08,21,21,12,17.40
2012,08,21,21,13,17.40
2012,08,21,21,14,17.30
2012,08,21,21,15,17.30
2012,08,21,21,16,17.40
2012,08,21,21,17,17.30
2012,08,21,21,18,17.30
2012,08,21,21,19,17.30
2012,08,21,21,20,17.30
2012,08,21,21,21,17.30
2012,08,21,21,22,17.30
2012,08,21,21,23,17.30
2012,08,21,21,24,17.30
2012,08,21,21,25,17.20
2012,08,21,21,26,17.20
2012,08,21,21,27,17.20
2012,08,21,21,28,17.20
2012,08,21,21,29,17.20
2012,08,21,21,30,17.20
2012,08,21,21,31,17.30
2012,08,21,21,32,17.20
2012,08,21,21,33,17.20
2012,08,21,21,34,17.20
2012,08,21,21,35,17.20
2012,08,21,21,36,17.20
2012,08,21,21,37,17.20
2012,08,21,21,38,17.20
2012,08,21,21,39,17.20
2012,08,21,21,40,17.20
2012,08,21,21,41,17.20
2012,08,21,21,42,17.20
2012,08,21,21,43,17.20
2012,08,21,21,44,17.20
2012,08,21,21,45,17.20
2012,08,21,21,46,17.20
2012,08,21,21,47,17.20
2012,08,21,21,48,17.20
2012,08,21,21,49,17.20
2012,08,21,21,50,17.20
2012,08,21,21,51,17.20
2012,08,21,21,52,17.20
2012,08,21,21,53,17.20
2012,08,21,21,54,17.30
2012,08,21,21,55,17.30
2012,08,21,21,56,17.20
2012,08,21,21,57,17.20
2012,08,21,21,58,17.20
2012,08,21,21,59,17.20
2012,08,21,22,00,17.20
2012,08,21,22,01,17.20
2012,08,21,22,02,17.20
2012,08,21,22,03,17.20
2012,08,21,22,04,17.30
2012,08,21,22,05,17.20
2012,08,21,22,06,17.20
2012,08,21,22,07,17.20
2012,08,21,22,08,17.20
2012,08,21,22,09,17.30
2012,08,21,22,10,17.30
2012,08,21,22,11,17.20
2012,08,21,22,12,17.30
2012,08,21,22,13,17.20
2012,08,21,22,14,17.20
2012,08,21,22,15,17.20
2012,08,21,22,16,17.30
2012,08,21,22,17,17.20
2012,08,21,22,18,17.20
2012,08,21,22,19,17.20
2012,08,21,22,20,17.20
2012,08,21,22,21,17.20
2012,08,21,22,22,17.20
2012,08,21,22,23,17.20
2012,08,21,22,24,17.20
2012,08,21,22,25,17.20
2012,08,21,22,26,17.20
2012,08,21,22,27,17.30
2012,08,21,22,28,17.30
2012,08,21,22,29,17.20
2012,08,21,22,30,17.20
2012,08,21,22,31,17.20
2012,08,21,22,32,17.20
2012,08,21,22,33,17.20
2012,08,21,22,34,17.20
2012,08,21,22,35,17.20
2012,08,21,22,36,17.20
2012,08,21,22,37,17.20
2012,08,21,22,38,17.20
2012,08,21,22,39,17.20
2012,08,21,22,40,17.30
2012,08,21,22,41,17.20
2012,08,21,22,42,17.20
2012,08,21,22,43,17.20
2012,08,21,22,44,17.20
2012,08,21,22,45,17.20
2012,08,21,22,46,17.30
2012,08,21,22,47,17.30
2012,08,21,22,48,17.20
2012,08,21,22,49,17.30
2012,08,21,22,50,17.30
2012,08,21,22,51,17.30
2012,08,21,22,52,17.20
2012,08,21,22,53,17.30
2012,08,21,22,54,17.30
2012,08,21,22,55,17.20
2012,08,21,22,56,17.20
2012,08,21,22,57,17.20
2012,08,21,22,58,17.20
2012,08,21,22,59,17.20
2012,08,21,23,00,17.10
2012,08,21,23,01,17.10
2012,08,21,23,02,17.10
2012,08,21,23,03,17.10
2012,08,21,23,04,17.20
2012,08,21,23,05,17.20
2012,08,21,23,06,17.20
2012,08,21,23,07,17.20
2012,08,21,23,08,17.10
2012,08,21,23,09,17.20
2012,08,21,23,10,17.10
2012,08,21,23,11,17.10
2012,08,21,23,12,17.20
2012,08,21,23,13,17.20
2012,08,21,23,14,17.20
2012,08,21,23,15,17.20
2012,08,21,23,16,17.20
2012,08,21,23,17,17.10
2012,08,21,23,18,17.10
2012,08,21,23,19,17.10
2012,08,21,23,20,17.10
2012,08,21,23,21,17.10
2012,08,21,23,22,17.10
2012,08,21,23,23,17.10
2012,08,21,23,24,17.10
2012,08,21,23,25,17.10
2012,08,21,23,26,17.10
2012,08,21,23,27,17.10
2012,08,21,23,28,17.10
2012,08,21,23,29,17.10
2012,08,21,23,30,17.10
2012,08,21,23,31,17.10
2012,08,21,23,32,17.10
2012,08,21,23,33,17.10
2012,08,21,23,34,17.10
2012,08,21,23,35,17.10
2012,08,21,23,36,17.10
2012,08,21,23,37,17.00
2012,08,21,23,38,17.00
2012,08,21,23,39,17.00
2012,08,21,23,40,17.10
2012,08,21,23,41,17.00
2012,08,21,23,42,16.90
2012,08,21,23,43,17.10
2012,08,21,23,44,17.00
2012,08,21,23,45,16.90
2012,08,21,23,46,17.00
2012,08,21,23,47,17.00
2012,08,21,23,48,16.90
2012,08,21,23,49,16.90
2012,08,21,23,50,16.90
2012,08,21,23,51,16.90
2012,08,21,23,52,16.90
2012,08,21,23,53,16.80
2012,08,21,23,54,16.80
2012,08,21,23,55,16.80
2012,08,21,23,56,16.70
2012,08,21,23,57,16.70
2012,08,21,23,58,16.80
2012,08,21,23,59,16.80
